Temperature
15 15 15 15 15 15 15 15 15 15 15 15 15 15 15 15 15 15 15 15 15 15 15 15 15 15 15 15 15 15 15 15 15 15 15 15 15 15 15 15 14 14 15
15 15 15 15 15 15 15 15 15 15 15 15 15 15 15 15 15 15 15 15 15 14 14 14 15 15 15 15 15 15 15 15 15 15 14 14 14 14 14 14 14 14 14
15 15 15 15 15 15 15 15 15 15 15 15 15 15 15 15 15 15 15 14 14 14 14 14 14 14 14 14 15 15 15 15 15 14 14 14 14 14 14 14 14 14 14
15 15 15 15 15 15 15 14 14 14 15 15 15 15 15 15 15 14 14 14 14 14 14 14 14 14 14 14 15 15 15 15 15 14 13 13 13 14 14 14 14 14 14
14 14 14 15 15 14 14 14 14 14 14 14 14 15 15 15 15 14 14 14 14 14 14 14 14 14 14 14 14 15 15 14 14 14 13 13 13 13 14 13 13 14 13
14 14 14 15 15 14 14 14 14 14 14 14 14 14 14 14 14 14 14 14 14 14 14 14 14 14 14 14 14 14 14 14 14 13 13 13 13 13 13 13 13 13 13
14 14 14 14 14 14 14 14 14 14 14 14 14 14 14 14 14 14 14 14 14 14 14 14 14 14 14 14 14 14 14 14 13 13 13 13 13 13 13 13 13 13 13
14 14 14 14 14 14 14 14 14 14 14 14 14 14 14 14 14 14 14 14 14 14 14 14 14 14 14 14 14 14 14 14 13 13 13 13 13 13 13 13 13 13 13
13 13 13 14 14 14 14 14 14 14 14 14 14 14 14 14 14 14 14 14 14 14 14 14 14 14 14 14 14 14 14 13 13 13 13 13 13 13 13 13 12 13 13
13 13 13 13 13 13 14 14 14 14 14 14 14 14 14 14 14 14 14 14 14 14 14 13 13 13 14 13 13 13 13 13 13 12 12 12 13 13 13 12 12 12 12
13 13 13 13 13 13 13 13 13 13 13 13 14 14 13 13 13 13 13 13 13 13 13 13 13 13 13 13 13 13 13 12 12 12 12 12 13 13 12 12 12 12 12
13 13 13 13 13 13 13 13 13 13 13 13 13 13 13 13 13 13 13 13 13 13 13 13 13 13 13 12 13 13 12 12 12 12 12 12 12 12 12 12 12 12 12
12 12 13 12 13 12 12 12 13 13 13 13 12 13 13 13 13 13 13 13 13 13 12 13 12 12 12 12 12 12 12 12 12 12 12 12 12 12 12 12 12 12 12
12 12 12 12 12 12 12 12 12 12 12 12 12 12 12 12 12 12 12 12 12 12 12 12 12 12 12 12 12 12 12 12 12 12 12 12 12 12 12 12 12 12 12
11 12 12 12 12 12 12 12 12 12 12 12 12 12 12 12 12 12 12 12 12 12 12 12 12 12 12 12 11 11 11 11 11 11 12 12 12 12 12 12 12 12 12
11 11 11 11 11 11 11 11 12 12 12 12 12 12 12 12 12 12 12 12 12 12 11 11 11 11 11 11 11 11 11 11 11 11 11 11 11 11 11 11 12 11 11
10 10 11 11 11 11 11 11 11 11 11 11 11 11 11 11 11 11 11 11 11 11 11 11 11 11 11 11 11 11 11 11 11 11 11 11 11 11 11 11 11 11 11
10 10 10 10 10 10 10 10 10 10 11 11 11 11 11 11 11 11 11 11 11 11 11 11 11 11 11 11 11 11 11 11 11 11 11 11 11 11 11 11 11 11 11
9 9 9 9 10 10 10 10 10 10 10 10 10 10 10 10 10 10 10 10 10 10 10 10 10 10 10 10 10 10 10 11 11 11 10 10 10 11 10 10 10 10 10
9 9 9 9 9 9 9 9 9 9 9 9 10 10 10 10 10 10 10 10 10 10 10 10 10 10 10 10 10 10 10 10 10 10 10 10 10 10 10 10 10 10 10
8 9 8 8 8 8 9 9 9 9 9 9 9 9 9 9 9 9 9 9 9 9 9 9 9 9 9 9 10 9 10 10 10 10 10 10 10 10 10 10 10 10 10
8 8 8 8 8 8 8 8 8 8 8 8 9 9 9 9 9 9 9 9 9 9 9 9 9 9 9 9 9 8 8 9 9 9 10 10 10 10 10 10 9 9 9
8 8 8 8 8 8 7 7 7 7 8 8 8 8 8 8 8 8 8 8 8 8 8 8 8 8 8 8 8 8 8 9 8 8 9 9 9 9 9 9 9 9 9
7 7 7 7 7 7 7 7 7 7 7 7 7 7 8 8 8 8 8 8 8 8 8 8 8 8 8 8 8 7 7 7 7 7 8 8 8 8 8 8 9 8 8
6 6 7 7 7 7 7 6 6 6 6 6 7 7 7 7 7 7 7 7 7 7 7 7 7 7 7 7 7 7 7 7 7 6 7 7 7 7 8 8 8 8 8
6 6 6 6 6 6 6 6 6 6 6 6 6 6 6 6 6 6 7 7 7 7 7 7 7 7 7 7 7 7 6 6 6 6 6 6 6 6 7 7 7 7 7
Wind_Speed
5 6 7 8 9 10 10 10 11 10 10 11 12 12 12 11 11 11 11 12 11 12 12 12 12 12 13 13 13 13 13 14 13 14 14 14 14 14 14 12 12 14 15
7 8 8 9 9 10 10 10 10 10 10 10 11 11 11 11 11 11 11 10 11 11 11 11 12 12 12 12 12 12 12 12 12 12 12 13 13 13 13 12 12 13 13
8 8 9 9 9 9 9 10 10 10 10 10 10 10 10 10 10 10 10 10 10 10 10 10 11 11 11 11 11 11 11 11 11 9 8 10 11 12 12 12 12 13 12
8 8 8 9 9 9 9 9 9 9 10 9 10 9 9 9 9 9 9 9 9 9 9 10 10 10 10 10 10 10 10 10 9 6 7 8 9 11 11 11 11 11 11
8 7 8 9 9 8 8 8 9 9 9 9 9 8 8 8 8 8 8 8 9 9 9 9 9 9 8 8 8 9 9 8 6 6 7 7 8 10 9 10 10 10 10
7 7 8 8 8 8 8 8 8 8 8 8 8 8 8 8 8 8 8 8 8 8 8 8 8 8 8 7 8 8 7 6 5 6 6 6 7 8 8 8 9 9 9
7 7 8 8 8 8 8 8 8 8 8 8 7 7 7 7 7 7 7 7 7 7 7 7 7 7 7 7 7 7 6 4 4 5 5 5 7 7 6 7 7 8 8
7 7 8 7 7 7 7 7 7 7 7 8 7 7 7 7 7 7 6 6 7 7 6 6 6 6 6 6 6 6 5 3 3 4 4 4 6 5 5 6 5 6 7
6 6 6 6 6 7 7 7 7 7 7 7 7 6 6 6 6 6 6 6 6 6 6 5 5 5 5 5 5 5 4 3 2 3 3 3 4 4 4 4 4 4 5
5 5 5 5 5 5 6 6 6 7 7 7 7 6 6 6 6 6 6 5 5 5 5 5 5 5 5 5 4 4 3 3 2 2 2 3 3 2 3 3 3 3 4
4 4 4 4 4 4 4 5 5 6 6 6 6 6 5 4 4 4 4 4 4 4 4 5 4 4 4 4 4 3 3 2 2 2 2 2 2 2 2 3 3 3 3
4 3 3 3 3 3 3 4 4 4 4 3 3 4 3 3 3 3 5 4 4 4 4 4 4 5 4 4 4 4 3 3 2 2 2 2 2 3 4 4 4 4 4
3 2 2 3 3 3 2 3 2 2 3 3 2 2 2 2 2 2 3 3 3 3 3 4 5 4 3 3 3 3 3 3 2 2 2 2 3 4 4 5 5 5 5
3 2 2 2 2 2 2 2 2 2 2 2 2 2 2 2 2 2 2 2 2 2 2 2 2 3 3 4 3 3 3 3 3 3 2 2 4 5 5 5 5 5 5
2 1 1 1 1 2 2 2 2 2 2 2 2 2 2 1 2 2 2 2 2 2 2 2 2 3 4 4 4 4 4 4 4 4 3 3 3 5 6 6 6 6 5
2 1 0 0 0 1 2 2 2 2 2 2 2 2 2 2 2 2 2 1 2 2 2 3 3 3 3 3 4 4 4 5 5 5 5 4 5 5 6 6 6 6 5
1 1 0 1 1 1 2 2 2 2 2 2 2 3 2 2 2 2 2 2 2 2 3 3 3 3 3 3 4 5 4 5 5 6 5 5 5 6 6 6 6 6 5
1 1 0 0 1 1 2 2 1 2 2 2 2 2 3 3 3 2 2 2 2 2 2 3 3 3 3 3 4 4 4 4 6 6 5 5 5 5 6 6 6 6 6
1 1 0 0 0 1 1 1 1 1 2 2 2 2 2 3 3 3 2 2 3 2 2 3 3 3 3 4 4 4 4 4 5 5 5 5 5 5 5 5 6 6 6
1 0 0 1 1 1 1 1 0 1 0 1 1 1 2 2 3 3 2 3 3 3 3 3 3 3 3 3 4 4 4 4 4 4 5 5 4 5 5 5 5 6 6
1 1 1 1 1 1 1 1 1 1 1 1 1 1 2 2 3 3 2 2 3 3 3 4 4 4 3 3 3 3 4 4 4 4 4 4 4 5 5 5 5 5 5
1 1 1 0 0 1 1 1 2 1 1 1 1 1 2 2 2 3 3 3 3 3 3 4 4 3 3 2 3 3 3 4 3 3 4 4 4 4 4 5 5 6 6
1 0 0 0 1 1 1 1 1 1 1 1 1 1 2 2 2 3 3 3 3 3 3 4 5 5 4 4 3 3 3 3 2 2 3 4 4 4 4 5 6 6 6
1 1 0 0 0 0 1 1 1 2 2 2 2 2 2 2 2 2 3 4 4 4 4 4 5 5 5 5 4 4 4 3 3 3 3 4 4 5 5 5 6 7 7
1 0 0 0 0 0 1 1 2 2 2 1 1 2 2 2 2 2 3 3 4 4 4 5 5 6 5 6 5 4 4 4 5 5 5 4 4 5 5 6 6 6 7
1 0 0 0 1 1 1 1 2 2 2 1 2 2 2 2 2 2 3 3 4 4 5 5 5 6 6 6 5 4 4 4 4 5 6 6 6 5 5 5 6 6 6
Wind_Direction
144 141 136 135 130 127 123 120 118 119 118 118 119 115 112 109 106 103 101 101 100 98 97 96 96 92 90 89 87 85 85 85 85 85 85 83 83 82 80 77 80 80 77
144 142 135 136 130 127 127 124 122 118 115 114 119 119 117 113 110 107 106 104 102 100 97 97 96 95 93 92 91 89 88 88 86 86 90 88 84 82 80 73 69 79 79
137 138 139 132 131 129 126 127 126 123 118 116 116 119 119 118 115 113 111 109 106 102 101 101 99 97 97 95 94 93 92 90 89 90 97 93 88 84 82 80 79 81 81
132 134 134 128 128 127 126 126 130 128 124 120 119 119 118 119 120 118 116 112 109 106 105 105 103 101 99 98 97 97 97 94 92 95 92 88 90 87 83 83 82 82 83
126 126 119 121 122 120 120 123 125 128 128 124 123 121 121 118 119 122 121 116 113 110 108 108 107 106 104 102 102 102 102 101 100 98 89 88 88 89 86 85 84 82 83
126 124 121 121 119 117 114 114 120 123 126 128 128 128 125 120 115 115 119 121 122 117 112 111 111 109 108 110 110 108 106 109 119 99 93 90 90 89 86 88 88 87 87
126 117 120 117 117 118 116 113 114 118 122 122 124 125 126 127 123 119 117 118 123 123 120 118 114 112 110 113 119 117 115 113 109 102 98 91 87 87 88 90 91 95 95
122 113 110 108 111 113 115 114 115 118 123 120 118 118 120 124 128 128 127 127 124 124 123 122 122 120 116 115 120 123 124 139 127 109 104 97 89 88 90 94 97 100 102
115 111 110 116 115 112 108 105 109 111 113 115 113 112 115 117 123 125 127 129 130 128 125 123 125 121 120 123 123 121 126 162 162 122 113 104 102 109 104 102 103 109 110
111 110 112 115 119 124 120 107 107 110 108 110 114 111 112 117 117 126 127 125 132 136 135 135 138 135 124 121 125 127 141 187 180 153 147 116 115 139 140 132 131 129 126
112 113 113 114 113 120 123 120 118 114 110 116 120 117 128 138 136 134 121 125 134 139 145 148 149 148 150 143 144 150 186 202 195 192 175 115 164 197 194 182 173 166 159
142 135 126 121 119 121 119 129 135 131 127 127 133 139 140 145 143 140 126 125 139 148 154 157 164 176 196 184 172 188 207 217 220 209 179 153 216 227 223 212 204 199 195
150 129 133 132 136 134 127 131 133 140 142 144 139 147 155 150 151 159 161 156 162 175 179 173 189 201 207 205 208 209 222 230 223 216 198 196 234 238 234 226 220 218 211
150 137 115 103 139 151 149 150 150 151 157 157 163 165 173 167 168 172 181 186 186 190 196 203 216 215 218 219 223 224 226 228 228 225 207 211 239 243 241 232 227 225 219
153 143 144 132 126 167 165 168 168 169 175 177 178 183 191 186 191 186 198 196 204 210 209 231 238 234 228 224 225 229 237 239 238 233 224 213 237 244 244 238 235 234 231
179 162 219 204 192 187 182 183 181 184 187 188 184 190 198 205 199 204 211 212 214 229 235 241 253 248 242 233 233 233 238 240 243 243 241 226 223 240 247 243 241 238 233
198 168 212 253 287 235 207 199 196 194 193 192 203 204 206 217 217 211 216 222 230 238 242 246 252 251 246 242 238 239 240 239 241 243 240 241 232 228 240 246 243 238 235
203 187 203 278 296 264 241 210 203 203 195 198 209 212 222 225 229 221 218 225 232 234 237 244 251 255 248 250 250 244 246 243 242 242 238 237 235 234 229 235 241 242 241
198 187 159 347 340 297 311 254 186 189 189 199 208 215 228 231 235 232 223 223 222 225 232 243 251 257 259 260 262 262 257 251 248 240 238 236 234 235 236 223 229 240 246
109 97 89 31 356 356 29 23 108 105 164 176 203 238 230 227 234 234 232 228 221 225 229 234 245 255 257 266 267 264 264 259 249 245 243 239 236 237 238 237 230 233 239
100 77 54 37 12 346 307 304 268 266 264 250 243 255 241 237 232 227 230 235 232 229 230 234 240 253 257 263 261 261 254 250 248 251 248 245 240 241 242 239 239 239 233
151 108 74 17 331 311 306 303 283 260 261 270 288 263 246 242 241 236 230 236 237 238 235 233 235 238 245 237 251 262 265 235 234 250 251 248 246 240 243 245 246 244 245
169 198 220 268 294 312 335 333 309 242 234 269 290 276 276 261 241 248 244 237 236 231 234 236 232 232 235 233 241 248 254 255 279 237 247 247 248 248 248 247 249 251 250
213 204 232 210 206 309 304 279 273 255 255 269 273 285 300 297 271 250 249 243 241 234 234 237 235 237 235 233 233 242 260 276 262 263 240 244 256 259 256 255 254 251 251
201 176 136 67 104 217 257 260 264 270 272 273 280 290 310 311 307 280 257 251 249 245 241 241 241 241 235 233 232 235 244 250 250 254 263 261 260 256 261 262 259 256 254
181 142 50 54 7 340 295 277 278 275 274 262 274 286 300 309 303 302 287 266 257 253 246 242 241 240 238 238 234 231 238 237 236 242 256 265 269 269 268 262 256 256 255
Height
1533 1533 1534 1536 1537 1538 1538 1539 1540 1541 1541 1542 1542 1542 1543 1543 1543 1543 1543 1543 1543 1543 1543 1543 1543 1543 1543 1542 1542 1542 1542 1542 1542 1542 1541 1541 1541 1541 1541 1541 1541 1541 1540
1532 1534 1535 1536 1537 1538 1539 1540 1541 1542 1542 1543 1543 1543 1544 1544 1544 1544 1544 1545 1545 1545 1545 1545 1544 1544 1544 1544 1544 1543 1543 1543 1543 1543 1543 1543 1543 1543 1543 1542 1542 1542 1542
1532 1534 1535 1537 1538 1539 1540 1541 1542 1542 1543 1543 1544 1544 1545 1545 1545 1545 1545 1546 1546 1546 1546 1546 1546 1546 1545 1545 1545 1545 1545 1544 1544 1544 1545 1545 1544 1544 1544 1544 1544 1544 1543
1533 1535 1536 1537 1538 1540 1540 1541 1542 1543 1544 1544 1545 1545 1545 1546 1546 1546 1546 1547 1547 1547 1547 1547 1547 1547 1547 1546 1546 1546 1546 1546 1546 1546 1547 1547 1546 1546 1545 1545 1545 1545 1545
1534 1535 1536 1537 1539 1540 1541 1542 1543 1544 1544 1545 1545 1546 1546 1546 1546 1547 1547 1547 1548 1548 1548 1548 1548 1548 1548 1547 1547 1547 1547 1547 1547 1547 1548 1548 1547 1547 1547 1546 1546 1546 1546
1534 1536 1537 1538 1539 1540 1541 1542 1543 1544 1544 1545 1546 1546 1546 1546 1547 1547 1547 1548 1548 1548 1548 1548 1549 1549 1548 1548 1548 1548 1548 1548 1549 1549 1549 1549 1549 1548 1548 1548 1547 1547 1547
1534 1536 1537 1538 1539 1540 1541 1542 1543 1544 1544 1545 1545 1546 1546 1546 1547 1547 1548 1548 1548 1548 1549 1549 1549 1549 1549 1549 1549 1549 1549 1549 1550 1550 1549 1549 1549 1549 1549 1548 1548 1548 1547
1534 1536 1537 1538 1539 1540 1541 1542 1543 1544 1544 1545 1545 1546 1546 1546 1547 1547 1547 1548 1548 1548 1548 1549 1549 1549 1549 1549 1549 1549 1550 1550 1550 1550 1550 1550 1549 1549 1549 1549 1549 1548 1548
1534 1535 1537 1538 1539 1540 1541 1542 1543 1543 1544 1544 1545 1545 1545 1546 1546 1547 1547 1547 1548 1548 1548 1548 1549 1549 1549 1549 1549 1550 1550 1550 1551 1551 1550 1550 1550 1550 1550 1549 1549 1549 1549
1534 1535 1536 1538 1539 1540 1541 1542 1542 1543 1543 1544 1544 1545 1545 1545 1546 1546 1546 1546 1547 1547 1547 1548 1548 1548 1549 1549 1549 1549 1549 1550 1551 1551 1550 1550 1550 1550 1550 1550 1549 1549 1549
1534 1535 1536 1537 1538 1539 1540 1541 1542 1542 1543 1543 1544 1544 1544 1545 1545 1545 1545 1545 1546 1546 1547 1547 1548 1548 1548 1548 1548 1549 1549 1550 1550 1550 1550 1550 1549 1549 1549 1549 1549 1549 1549
1532 1533 1535 1536 1537 1538 1539 1540 1540 1541 1542 1542 1542 1543 1543 1544 1544 1544 1544 1544 1545 1545 1546 1546 1546 1547 1547 1547 1547 1548 1548 1549 1549 1549 1549 1549 1549 1549 1549 1549 1549 1549 1549
1531 1532 1533 1535 1536 1537 1537 1538 1539 1539 1540 1541 1541 1541 1542 1542 1542 1543 1543 1543 1543 1544 1544 1544 1545 1545 1546 1546 1546 1546 1547 1547 1547 1548 1547 1547 1548 1548 1548 1548 1548 1548 1548
1530 1531 1532 1533 1534 1535 1536 1537 1537 1538 1538 1539 1539 1540 1540 1540 1541 1541 1541 1542 1542 1542 1542 1543 1543 1544 1544 1544 1545 1545 1545 1545 1546 1546 1546 1546 1546 1546 1546 1546 1546 1547 1547
1529 1529 1530 1531 1532 1533 1534 1535 1535 1536 1536 1537 1537 1538 1538 1538 1539 1539 1539 1539 1540 1540 1541 1541 1541 1541 1542 1542 1542 1543 1543 1543 1544 1544 1544 1544 1544 1544 1544 1545 1545 1545 1545
1526 1527 1528 1529 1530 1530 1531 1532 1533 1533 1534 1535 1535 1535 1536 1536 1537 1537 1538 1537 1538 1538 1538 1539 1539 1539 1539 1540 1540 1540 1540 1541 1541 1541 1541 1541 1542 1542 1542 1542 1543 1543 1543
1525 1525 1526 1527 1528 1528 1529 1530 1530 1531 1532 1532 1533 1533 1534 1534 1534 1535 1535 1535 1536 1536 1536 1536 1536 1537 1537 1537 1537 1537 1537 1538 1538 1538 1538 1539 1539 1539 1539 1539 1540 1540 1540
1523 1524 1524 1525 1525 1526 1527 1527 1528 1528 1529 1529 1530 1530 1531 1532 1532 1532 1532 1532 1533 1533 1533 1533 1533 1534 1534 1534 1534 1534 1535 1534 1534 1535 1535 1535 1536 1536 1536 1536 1537 1537 1537
1521 1522 1522 1522 1522 1523 1524 1525 1525 1526 1526 1526 1527 1528 1528 1529 1529 1529 1529 1529 1530 1530 1530 1531 1531 1531 1531 1531 1531 1531 1531 1531 1531 1531 1532 1532 1532 1532 1533 1533 1533 1534 1534
1519 1519 1520 1520 1520 1520 1521 1521 1522 1523 1523 1523 1524 1524 1525 1525 1526 1526 1526 1527 1527 1527 1527 1528 1528 1528 1528 1528 1528 1528 1528 1527 1527 1528 1528 1528 1528 1529 1529 1529 1530 1530 1530
1517 1517 1517 1518 1518 1518 1518 1518 1518 1519 1519 1520 1520 1521 1521 1522 1522 1522 1523 1523 1524 1524 1524 1524 1525 1525 1525 1525 1525 1525 1524 1524 1524 1524 1524 1525 1525 1525 1525 1526 1526 1526 1526
1514 1514 1515 1515 1516 1516 1515 1515 1515 1516 1516 1516 1517 1517 1517 1518 1518 1519 1519 1519 1520 1520 1520 1521 1521 1522 1522 1522 1522 1522 1522 1523 1520 1520 1521 1521 1521 1521 1521 1522 1522 1522 1522
1510 1511 1512 1512 1513 1513 1513 1513 1512 1513 1513 1513 1513 1513 1514 1514 1515 1515 1515 1516 1516 1516 1516 1517 1518 1518 1518 1519 1519 1520 1520 1519 1518 1518 1517 1517 1517 1518 1518 1518 1518 1518 1518
1507 1508 1509 1510 1510 1510 1510 1510 1510 1509 1509 1509 1509 1509 1510 1510 1511 1511 1512 1512 1512 1512 1513 1513 1514 1514 1515 1514 1515 1515 1516 1515 1516 1515 1515 1515 1514 1514 1514 1514 1514 1514 1513
1504 1505 1506 1507 1507 1507 1508 1507 1507 1506 1506 1506 1506 1506 1506 1507 1507 1507 1508 1508 1508 1508 1509 1509 1509 1510 1510 1511 1511 1511 1511 1511 1512 1512 1511 1511 1511 1510 1510 1510 1510 1509 1509
1501 1502 1503 1504 1504 1504 1504 1504 1504 1503 1503 1502 1503 1503 1503 1503 1503 1503 1503 1504 1504 1504 1504 1505 1505 1505 1506 1506 1506 1506 1507 1507 1507 1508 1507 1507 1506 1506 1506 1506 1505 1505 1504